Flight Track Log - Related Links

Times and Time Zones

All times are in EDT time to prevent confusion due to time zone crossing. See the SWA3943 flight status page for this flight to view local times or setup timezone preferences in your user account.

Time Position Orientation Groundspeed Altitude Reporting Facility
EDT Latitude Longitude Course Direction KTS MPH feet Rate Location/Type
Fri 08:35:42 PM 39.9917 -82.8244 91° East 178 205 2,600  Level Indianapolis Center
Fri 08:36:13 PM 39.9917 -82.7856 90° East 205 236 3,600 2,066 Climbing Indianapolis Center
Fri 08:36:43 PM 39.9911 -82.7375 91° East 240 276 4,700 2,419 Climbing Indianapolis Center
Fri 08:37:15 PM 39.9900 -82.6956 92° East 236 272 6,100 3,226 Climbing Indianapolis Center
Fri 08:38:16 PM 39.9833 -82.5964 95° East 272 313 9,700 2,976 Climbing Indianapolis Center
Fri 08:39:18 PM 39.9836 -82.4847 90° East 307 353 12,200 2,683 Climbing Indianapolis Center
Fri 08:40:19 PM 39.9869 -82.3578 88° East 344 396 15,200 2,732 Climbing Indianapolis Center
Fri 08:41:21 PM 39.9908 -82.2236 88° East 361 415 17,800 2,146 Climbing Indianapolis Center
Fri 08:42:22 PM 39.9939 -82.0792 88° East 388 447 19,600 2,146 Climbing Indianapolis Center
Fri 08:43:24 PM 39.9983 -81.9306 88° East 403 464 22,200 2,244 Climbing Indianapolis Center
Fri 08:44:25 PM 40.0011 -81.7503 89° East 421 484 24,200 2,000 Climbing Indianapolis Center
Fri 08:45:27 PM 40.0039 -81.5872 89° East 438 504 26,300 1,756 Climbing Indianapolis Center
Fri 08:46:28 PM 39.9956 -81.4214 94° East 455 524 27,800 1,317 Climbing Indianapolis Center
Fri 08:47:30 PM 39.9708 -81.2483 101° East 479 551 29,000 585 Climbing Indianapolis Center
Fri 08:48:31 PM 39.9469 -81.0739 100° East 502 578 29,000  Level Indianapolis Center
Fri 08:49:32 PM 39.9222 -80.8856 100° East 523 602 29,000  Level Indianapolis Center
Fri 08:50:34 PM 39.8964 -80.7014 100° East 517 595 29,000  Level Indianapolis Center
Fri 08:51:35 PM 39.8703 -80.5183 100° East 514 592 29,000  Level Indianapolis Center
Fri 08:52:37 PM 39.8444 -80.3331 100° East 517 595 29,000  Level Indianapolis Center
Fri 08:53:05 PM 39.8344 -80.2392 98° East 519 597 29,000  Level Washington Center
Fri 08:54:06 PM 39.8083 -80.0539 100° East 524 603 29,000  Level Washington Center
Fri 08:55:05 PM 39.7794 -79.8683 101° East 524 603 29,000  Level Washington Center
Fri 08:56:06 PM 39.7547 -79.6861 100° East 524 603 29,000  Level Washington Center
Fri 08:57:06 PM 39.7253 -79.5036 102° East 524 603 29,000 -397 Level Washington Center
Fri 08:58:07 PM 39.6978 -79.3161 101° East 524 603 28,200 -1,686 Descending Washington Center
Fri 08:59:07 PM 39.6697 -79.1394 102° East 519 597 25,600 -1,831 Descending Washington Center
Fri 09:00:05 PM 39.6392 -78.9733 103° East 492 566 24,600 -857 Descending Washington Center
Fri 09:01:06 PM 39.6000 -78.8072 107° East 480 552 23,900 -885 Descending Washington Center
Fri 09:02:07 PM 39.5647 -78.6442 106° East 475 547 22,800 -1,636 Descending Washington Center
Fri 09:03:07 PM 39.5308 -78.4894 106° East 461 531 20,600 -2,218 Descending Washington Center
Fri 09:04:06 PM 39.4969 -78.3428 107° East 440 506 18,400 -2,250 Descending Washington Center
Fri 09:05:07 PM 39.4667 -78.2044 106° East 423 487 16,100 -1,672 Descending Washington Center
Fri 09:06:08 PM 39.4422 -78.0692 103° East 400 460 15,000 -555 Descending Washington Center
Fri 09:07:06 PM 39.4411 -77.9267 91° East 388 447 15,000  Level Washington Center
Fri 09:08:07 PM 39.4419 -77.7736 90° East 388 447 15,000  Level Washington Center
Fri 09:09:07 PM 39.4422 -77.6311 90° East 388 447 15,000 -1,017 Level Washington Center
Fri 09:10:05 PM 39.4422 -77.4969 90° East 383 441 13,000 -2,067 Descending Washington Center
Fri 09:11:06 PM 39.4444 -77.3653 89° East 372 428 10,900 -1,429 Descending Washington Center
Fri 09:11:29 PM 39.4500 -77.3167 82° East 357 411 11,000 72 Climbing Potomac TRACON
Fri 09:12:29 PM 39.4667 -77.1833 81° East 360 414 11,000  Level Potomac TRACON
Fri 09:13:29 PM 39.4833 -77.0500 81° East 356 410 11,000 -50 Level Potomac TRACON
Fri 09:14:29 PM 39.5000 -76.9333 79° East 361 415 10,900 -619 Descending Potomac TRACON
Fri 09:15:35 PM 39.4833 -76.8000 99° East 312 359 9,700 -1,318 Descending Potomac TRACON
Fri 09:16:41 PM 39.4500 -76.7000 113° Southeast 307 353 8,000 -1,476 Descending Potomac TRACON
Fri 09:17:41 PM 39.3833 -76.6333 142° Southeast 289 333 6,600 -1,400 Descending Potomac TRACON
Fri 09:18:41 PM 39.3167 -76.5833 150° Southeast 275 316 5,200 -1,750 Descending Potomac TRACON
Fri 09:19:41 PM 39.2500 -76.5667 169° South 262 302 3,100 -1,684 Descending Potomac TRACON
Fri 09:20:35 PM 39.2000 -76.5500 166° South 261 300 2,000 -737 Descending Potomac TRACON
Fri 09:21:35 PM 39.1333 -76.5667 191° South 203 234 1,700 -316 Descending Potomac TRACON
Fri 09:22:29 PM 39.1167 -76.6000 237° Southwest 151 174 1,400 -526 Descending Potomac TRACON
Fri 09:23:29 PM 39.1333 -76.6500 293° West 136 157 700 -700 Descending Potomac TRACON
Fri 09:25:00 PM 39.1667 -76.6667 293° West  Level FlightAware Approximate
Fri 09:32:00 PM 39.1754 -76.6683 293° West  Level Estimated
Fri 09:33:00 PM 39.1754 -76.6683 293° West  Level Estimated
Fri 09:34:00 PM 39.1754 -76.6683 293° West  Level Estimated

Login

Don't have an account? Register now (free) for customized features, flight alerts, and more!